Regional Weather Roundup
Issued by NWS

Home | Current Version | Previous Version | Text Only | Print | Product List | Glossary On
Versions: 1 2 3 4 5 6 7 8 9 10 11 12 13 14 15 16 17 18 19 20 21 22 23 24 25 26 27 28 29 30 31 32 33 34 35 36 37 38 39 40 41 42 43 44 45 46 47 48 49 50
000
ASCA42 TJSJ 231910
RWRPR
PUERTO RICO/U.S. VIRGIN ISLANDS HOURLY WEATHER ROUNDUP
NATIONAL WEATHER SERVICE SAN JUAN PR
300 PM AST TUE SEP 23 2014

PRZ001-004-232000-
PUERTO RICO

CITY           SKY/WX    TMP DP  RH WIND       PRES   REMARKS
SAN JUAN LMM   MOSUNNY   84  75  74 S3        29.91F HX  92
MAYAGUEZ       PTSUNNY   86  73  66 SE5       29.93S HX  93
AGUADILLA      CLOUDY    75  72  88 SE7       29.94R
CEIBA          SUNNY     88  75  66 SE13      29.93F HX  97
$$

PRZ006-007-232000-
U.S. VIRGIN ISLANDS

CITY           SKY/WX    TMP DP  RH WIND       PRES   REMARKS
$$

HOURLY WEATHER ROUNDUP FOR THE NEWS MEDIA

CITY           SKY/WX    TMP DP  RH WIND       PRES   REMARKS
ORLANDO        PTSUNNY   83  73  72 SW9       29.98F
NEW YORK       PTSUNNY   67  44  43 SW10      30.33S
NEWARK         MOSUNNY   71  41  33 CALM      30.31F
CHICAGO        MOSUNNY   69  46  43 SW6       30.32F
HARTFORD       SUNNY     67  45  45 S10       30.27S
BOSTON         MOSUNNY   69  41  36 NW8       30.26S
DALLAS         PTSUNNY   79  52  38 VRB5      30.16F
PHILADELPHIA   PTSUNNY   70  42  36 SE6       30.33F
LOS ANGELES    MOSUNNY   72  63  73 W10       29.98F
WASHINGTON DC  PTSUNNY   68  40  35 NE5       30.33F



USA.gov is the U.S. government's official web portal to all federal, state and local government web resources and services.